Weather History for Bettles, AK

Change the Weather History Date:

Monday, November 19, 2012

  Actual Average Record
Temperature  
Mean Temperature -6 °F -  
Max Temperature 0 °F 2 °F 32 °F (1996)
Min Temperature -14 °F -10 °F -46 °F (1993)
Degree Days  
Heating Degree Days 70    
Moisture  
Dew Point -14 °F    
Average Humidity 71    
Maximum Humidity 87    
Minimum Humidity 57    
Precipitation  
Precipitation 0.00 in - - ()
Snow  
Snow 0.00 in - - ()
Snow Depth 1.00 in    
Sea Level Pressure  
Sea Level Pressure 30.31 in    
Wind  
Wind Speed 6 mph (North)    
Max Wind Speed 9 mph    
Max Gust Speed -    
Visibility 10 miles    
Events      
Averages and records for this station are not official NWS values.
T = Trace of Precipitation, MM = Missing Value Source: NWS Daily Summary

Daily Weather History Graph

Daily Weather History Graph

Search for Another Location

Airport:

Trip Planner

Search our weather history database for the weather conditions in past years. The results will help you decide how hot, cold, wet, or windy it might be!

Date:

Astronomy

Nov. 19, 2012 Rise Set
Actual Time 10:24 AM AKST 3:18 PM AKST
Civil Twilight 9:06 AM AKST 4:35 PM AKST
Nautical Twilight 7:55 AM AKST 5:46 PM AKST
Astronomical Twilight 6:51 AM AKST 6:50 PM AKST
Moon 2:10 PM AKST (11/19) 11:30 PM AKST (11/19)
Length of Visible Light 7h 29m
Length of Day
4h 54m
Waxing Crescent, 42% of the Moon is Illuminated
Nov 19
Waxing Crescent
Nov 20
First Quarter
Nov 28
Full
Dec 6
Last Quarter
Dec 12
New

Hourly Weather History & Observations

Time (AKST) Temp. Windchill Dew Point Humidity Pressure Visibility Wind Dir Wind Speed Gust Speed Precip Events Conditions
12:53 AM -11.0 °F -22.8 °F -13.9 °F 87% 30.25 in 10.0 mi North 4.6 mph - N/A   Clear
1:53 AM -6.0 °F -18.6 °F -13.0 °F 72% 30.26 in 10.0 mi North 5.8 mph - N/A   Clear
3:53 AM -5.1 °F -20.4 °F -14.1 °F 65% 30.28 in 10.0 mi North 8.1 mph - N/A   Clear
4:53 AM -2.9 °F -16.5 °F -9.9 °F 72% 30.29 in 10.0 mi North 6.9 mph - N/A   Clear
5:53 AM -2.9 °F -13.3 °F -7.1 °F 82% 30.30 in 10.0 mi North 4.6 mph - N/A   Clear
6:53 AM -4.0 °F -19.0 °F -14.1 °F 62% 30.30 in 10.0 mi NNE 8.1 mph - N/A   Clear
7:53 AM -6.0 °F -16.9 °F -11.0 °F 79% 30.31 in 10.0 mi NW 4.6 mph - N/A   Partly Cloudy
8:53 AM -7.1 °F -19.9 °F -11.9 °F 79% 30.32 in 10.0 mi WNW 5.8 mph - N/A   Partly Cloudy
9:53 AM -11.0 °F -26.2 °F -16.1 °F 78% 30.32 in 10.0 mi NNE 6.9 mph - N/A   Partly Cloudy
10:53 AM -8.0 °F -21.0 °F -16.1 °F 68% 30.33 in 10.0 mi NNW 5.8 mph - N/A   Partly Cloudy
11:53 AM -8.0 °F -22.5 °F -16.1 °F 68% 30.33 in 10.0 mi North 6.9 mph - N/A   Partly Cloudy
12:53 PM -4.9 °F -17.4 °F -11.9 °F 72% 30.33 in 10.0 mi North 5.8 mph - N/A   Partly Cloudy
1:53 PM -4.9 °F -17.4 °F -13.0 °F 68% 30.32 in 10.0 mi North 5.8 mph - N/A   Partly Cloudy
2:53 PM -6.0 °F -16.9 °F -11.9 °F 75% 30.32 in 10.0 mi North 4.6 mph - N/A   Partly Cloudy
3:53 PM -6.0 °F -18.6 °F -15.0 °F 65% 30.32 in 10.0 mi NNW 5.8 mph - N/A   Partly Cloudy
4:53 PM -6.0 °F -14.7 °F -16.1 °F 62% 30.30 in 10.0 mi NNW 3.5 mph - N/A   Partly Cloudy
5:53 PM -11.0 °F -20.4 °F -17.0 °F 75% 30.31 in 10.0 mi North 3.5 mph - N/A   Clear
6:53 PM -11.0 °F -22.8 °F -18.0 °F 71% 30.32 in 10.0 mi NNW 4.6 mph - N/A   Clear
7:53 PM -11.9 °F -23.8 °F -18.0 °F 74% 30.33 in 10.0 mi NE 4.6 mph - N/A   Clear
8:53 PM -11.0 °F -24.6 °F -18.0 °F 71% 30.31 in 10.0 mi North 5.8 mph - N/A   Clear
9:53 PM -9.9 °F -23.4 °F -18.0 °F 68% 30.32 in 10.0 mi NNW 5.8 mph - N/A   Clear
10:53 PM -9.9 °F -21.5 °F -18.0 °F 68% 30.31 in 10.0 mi NNW 4.6 mph - N/A   Clear
11:53 PM -14.1 °F -23.9 °F -20.0 °F 75% 30.31 in 10.0 mi North 3.5 mph - N/A   Clear